Location: LDNL
(36.4545°S, 141.6685°E)
Time: 06:54:03
(UTC+11:00)

Vanguard 1 - All Passes

Search period start: 26 January 2022 00:00
Search period end: 05 February 2022 00:00
Orbit: 652 x 3830 km, 34.2° (Epoch: 24 January)

Date Brightness Start Highest point End Pass type
(mag) Time Alt. Az. Time Alt. Az. Time Alt. Az.
26 Jan - 00:09:48 10° WNW 00:25:16 78° NNE 00:48:56 10° E visible
26 Jan - 02:32:18 10° W 02:52:36 82° N 03:15:51 10° ENE visible
26 Jan - 04:57:16 10° WSW 05:19:35 58° NNW 05:38:48 10° NE visible
26 Jan - 07:26:54 10° W 07:42:49 25° NW 07:55:33 10° N daylight
26 Jan - 19:56:11 10° NNE 20:02:14 17° NE 20:10:19 10° E daylight
26 Jan - 22:10:43 10° NW 22:22:14 55° NNE 22:42:02 10° ESE visible
27 Jan - 00:30:45 10° WNW 00:46:45 82° N 01:10:40 10° E visible
27 Jan - 02:53:35 10° W 03:14:14 78° NNW 03:37:08 10° ENE visible
27 Jan - 05:18:56 10° WSW 05:40:34 50° NW 05:59:04 10° NNE visible
27 Jan - 07:51:06 10° W 08:03:05 17° NW 08:13:15 10° NNW daylight
27 Jan - 20:14:42 10° N 20:22:18 24° NE 20:33:43 10° E daylight
27 Jan - 22:31:10 10° NW 22:43:05 64° NNE 23:03:52 10° E visible
28 Jan - 00:51:48 10° W 01:08:19 84° N 01:32:22 10° E visible
28 Jan - 03:14:53 10° W 03:35:46 72° NNW 03:58:14 10° ENE visible
28 Jan - 05:40:49 10° WSW 06:01:22 42° NW 06:18:59 10° NNE visible
28 Jan - 08:19:24 10° WNW 08:23:21 11° WNW 08:27:04 10° NW daylight
28 Jan - 20:34:03 10° NNW 20:42:29 33° NE 20:56:16 10° E daylight
28 Jan - 22:51:48 10° WNW 23:04:08 72° NNE 23:25:41 10° E visible
29 Jan - 01:12:54 10° W 01:29:57 84° N 01:54:01 10° E visible
29 Jan - 03:36:14 10° W 03:57:09 66° NNW 04:19:06 10° NE visible
29 Jan - 06:03:03 10° W 06:22:01 33° NW 06:38:26 10° N visible
29 Jan - 20:53:54 10° NNW 21:02:51 42° NE 21:18:23 10° ESE visible
29 Jan - 23:12:33 10° WNW 23:25:21 78° NNE 23:47:29 10° E visible
30 Jan - 01:34:01 10° W 01:51:33 81° N 02:15:33 10° ENE visible
30 Jan - 03:57:38 10° WSW 04:18:24 58° NNW 04:39:42 10° NE visible
30 Jan - 06:25:52 10° W 06:42:34 26° NW 06:57:15 10° N daylight
30 Jan - 19:00:34 10° NNE 19:04:13 13° NE 19:08:40 10° ENE daylight
30 Jan - 21:14:04 10° NW 21:23:25 52° NNE 21:40:19 10° ESE visible
30 Jan - 23:33:26 10° WNW 23:46:42 82° N 00:09:18 10° E visible
31 Jan - 01:55:10 10° W 02:13:07 77° NNW 02:36:57 10° ENE visible
31 Jan - 04:19:10 10° WSW 04:39:30 50° NW 04:59:59 10° NNE visible
31 Jan - 06:49:50 10° W 07:03:02 19° NW 07:15:00 10° NNW daylight
31 Jan - 19:18:33 10° N 19:24:17 20° NE 19:32:29 10° E daylight
31 Jan - 21:34:29 10° NW 21:44:11 62° NNE 22:02:09 10° E visible
31 Jan - 23:54:23 10° W 00:08:09 83° N 00:31:05 10° E visible
01 Feb - 02:16:20 10° W 02:34:37 71° NNW 02:58:08 10° ENE visible
01 Feb - 04:40:55 10° W 05:00:27 42° NW 05:19:54 10° NNE visible
01 Feb - 07:16:51 10° WNW 07:23:30 12° NW 07:29:50 10° NW daylight
01 Feb - 19:37:48 10° NNW 19:44:27 28° NE 19:55:03 10° E daylight
01 Feb - 21:55:05 10° WNW 22:05:07 70° NNE 22:23:57 10° E visible
02 Feb - 00:15:24 10° W 00:29:37 83° N 00:52:50 10° E visible
02 Feb - 02:37:33 10° W 02:56:00 64° NNW 03:19:05 10° NE visible
02 Feb - 05:03:01 10° W 05:21:16 34° NW 05:39:20 10° NNE visible
02 Feb - 19:57:36 10° NNW 20:04:46 38° NE 20:17:08 10° E daylight
02 Feb - 22:15:48 10° WNW 22:26:13 77° NNE 22:45:45 10° E visible
03 Feb - 00:36:24 10° W 00:51:07 80° N 01:14:29 10° ENE visible
03 Feb - 02:58:50 10° W 03:17:18 57° NNW 03:39:44 10° NE visible
03 Feb - 05:25:43 10° W 05:42:01 26° NW 05:58:06 10° N visible
03 Feb - 20:17:45 10° NW 20:25:17 48° NNE 20:38:59 10° E daylight
03 Feb - 22:36:37 10° WNW 22:47:26 81° N 23:07:35 10° E visible
04 Feb - 00:57:27 10° W 01:12:34 76° NNW 01:35:58 10° ENE visible
04 Feb - 03:20:16 10° W 03:38:28 49° NNW 04:00:02 10° NNE visible
04 Feb - 05:49:31 10° W 06:02:44 19° NW 06:15:47 10° NNW visible
04 Feb - 18:22:44 10° NNE 18:26:44 16° NE 18:31:58 10° E daylight
04 Feb - 20:38:08 10° NW 20:45:59 59° NNE 21:00:44 10° E daylight
04 Feb - 22:57:30 10° W 23:08:45 83° N 23:29:25 10° E visible
